TimeCST,TemperatureF,Dew PointF,Humidity,Sea Level PressureIn,VisibilityMPH,Wind Direction,Wind SpeedMPH,Gust SpeedMPH,PrecipitationIn,Events,Conditions,WindDirDegrees,DateUTC
12:20 AM,60.8,57.2,88,30.13,10.0,Calm,Calm,-,N/A,,Mostly Cloudy,0,2013-11-16 06:20:00
12:53 AM,60.1,57.0,90,30.12,10.0,ENE,3.5,-,N/A,,Overcast,70,2013-11-16 06:53:00
1:53 AM,57.9,55.9,93,30.11,10.0,NE,4.6,-,N/A,,Mostly Cloudy,40,2013-11-16 07:53:00
2:04 AM,57.2,55.4,94,30.11,10.0,ENE,3.5,-,N/A,,Scattered Clouds,60,2013-11-16 08:04:00
2:53 AM,57.0,55.9,96,30.10,9.0,Calm,Calm,-,N/A,,Partly Cloudy,0,2013-11-16 08:53:00
3:20 AM,57.2,55.4,94,30.11,8.0,Calm,Calm,-,N/A,,Scattered Clouds,0,2013-11-16 09:20:00
3:31 AM,57.2,55.4,94,30.10,7.0,Calm,Calm,-,N/A,,Mostly Cloudy,0,2013-11-16 09:31:00
3:53 AM,57.0,55.9,96,30.10,5.0,ENE,3.5,-,N/A,,Overcast,70,2013-11-16 09:53:00
4:12 AM,57.2,55.4,94,30.10,2.0,Calm,Calm,-,N/A,,Overcast,0,2013-11-16 10:12:00
4:20 AM,57.2,55.4,94,30.11,1.2,Calm,Calm,-,N/A,,Overcast,0,2013-11-16 10:20:00
4:37 AM,57.2,55.4,94,30.11,0.8,Calm,Calm,-,N/A,,Mist,0,2013-11-16 10:37:00
4:53 AM,57.0,55.9,96,30.11,0.5,Calm,Calm,-,N/A,Fog,Fog,0,2013-11-16 10:53:00
5:53 AM,57.0,57.0,100,30.11,0.5,East,3.5,-,N/A,Fog,Fog,80,2013-11-16 11:53:00
6:53 AM,57.9,57.0,97,30.12,0.2,Calm,Calm,-,N/A,Fog,Fog,0,2013-11-16 12:53:00
7:53 AM,59.0,59.0,100,30.14,0.5,East,3.5,-,N/A,Fog,Fog,90,2013-11-16 13:53:00
8:11 AM,59.0,59.0,100,30.15,1.2,Calm,Calm,-,N/A,,Overcast,0,2013-11-16 14:11:00
8:24 AM,60.8,59.0,94,30.15,3.0,Calm,Calm,-,N/A,,Overcast,0,2013-11-16 14:24:00
8:53 AM,60.1,59.0,96,30.15,6.0,Calm,Calm,-,N/A,,Overcast,0,2013-11-16 14:53:00
9:37 AM,62.6,60.8,94,30.16,8.0,Variable,4.6,-,N/A,,Overcast,0,2013-11-16 15:37:00
9:53 AM,64.0,60.1,87,30.16,9.0,ENE,5.8,-,N/A,,Overcast,70,2013-11-16 15:53:00
10:39 AM,68.0,60.8,78,30.14,10.0,East,5.8,-,N/A,,Mostly Cloudy,90,2013-11-16 16:39:00
10:53 AM,69.1,61.0,75,30.13,10.0,Calm,Calm,-,N/A,,Partly Cloudy,0,2013-11-16 16:53:00
11:53 AM,73.0,61.0,66,30.09,10.0,ESE,6.9,-,N/A,,Scattered Clouds,110,2013-11-16 17:53:00
12:15 PM,73.4,60.8,65,30.09,10.0,Calm,Calm,-,N/A,,Mostly Cloudy,0,2013-11-16 18:15:00
12:35 PM,75.2,60.8,61,30.07,10.0,Variable,4.6,-,N/A,,Scattered Clouds,0,2013-11-16 18:35:00
12:53 PM,75.0,61.0,62,30.06,10.0,Variable,3.5,-,N/A,,Partly Cloudy,0,2013-11-16 18:53:00
1:53 PM,75.9,61.0,60,30.05,10.0,South,6.9,-,N/A,,Mostly Cloudy,190,2013-11-16 19:53:00
2:53 PM,73.9,62.1,66,30.05,10.0,Calm,Calm,-,N/A,,Overcast,0,2013-11-16 20:53:00
3:53 PM,73.0,62.1,68,30.04,10.0,Variable,3.5,-,N/A,,Overcast,0,2013-11-16 21:53:00
4:53 PM,72.0,62.1,71,30.05,10.0,Calm,Calm,-,N/A,,Overcast,0,2013-11-16 22:53:00
5:53 PM,71.1,61.0,70,30.06,10.0,Calm,Calm,-,N/A,,Overcast,0,2013-11-16 23:53:00
6:53 PM,70.0,61.0,73,30.08,10.0,Calm,Calm,-,N/A,,Overcast,0,2013-11-17 00:53:00
7:53 PM,70.0,61.0,73,30.08,10.0,Calm,Calm,-,N/A,,Overcast,0,2013-11-17 01:53:00
8:53 PM,70.0,61.0,73,30.09,10.0,ESE,3.5,-,N/A,,Overcast,120,2013-11-17 02:53:00
9:53 PM,69.1,61.0,75,30.09,10.0,SE,3.5,-,N/A,,Overcast,130,2013-11-17 03:53:00
10:53 PM,69.1,61.0,75,30.07,10.0,Calm,Calm,-,N/A,,Overcast,0,2013-11-17 04:53:00
11:29 PM,68.0,62.6,83,30.07,10.0,Variable,4.6,-,N/A,,Overcast,0,2013-11-17 05:29:00
11:53 PM,69.1,63.0,81,30.06,10.0,SE,3.5,-,N/A,,Overcast,130,2013-11-17 05:53:00